sat.trackr.live / text

‹ back to catalog

STARLINK-30499

NORAD 57918 · 2023-147F

PAYLOAD ACTIVE UNKNOWN

§ Identity

Operator
Country
US
Launch date
2023-09-24
Launch site
AFETR
Launch vehicle
Mass (kg)
RCS (m²)

Purposes: comms

External: N2YO · Heavens-Above · Gunter

§ Orbital elements

Epoch: 2026-05-25T04:53:01.656096Z

Period
94.27 min
Inclination
43.0024°
Eccentricity
0.0001479
Mean motion
15.27574525 rev/d
Perigee alt
482.1 km
Apogee alt
484.1 km
Semi-major
6,861.2 km
B*
-7.2413e-6
RAAN
108.1114°
Arg perigee
269.9951°
Mean anomaly
90.0731°
Rev number
15,003

§ Raw data

STARLINK-304991 57918U 23147F   26145.20349139 -.00000461  00000+0 -72413-5 0  99902 57918  43.0024 108.1114 0001479 269.9951  90.0731 15.27574525150035

JSON: /api/v1/satellites/57918 · /tle

For live sub-satellite position, see the globe view (requires WebGL).

§ Visibility from observer

Set your observer location to see the next 7 days of passes ≥ 10°. The values pass through the URL so the page stays shareable.

No JS? Fill the form by hand. The geolocation button needs JavaScript.